﻿<?xml version="1.0" encoding="UTF-8" standalone="no"?>
<gpx xmlns="http://www.topografix.com/GPX/1/1" xmlns:gpxtpx="http://www.garmin.com/xmlschemas/TrackPointExtension/v1" xmlns:xsi="http://www.w3.org/2001/XMLSchema-instance" creator="Hribi.net" version="1.1" xsi:schemaLocation="http://www.topografix.com/GPX/1/1 http://www.topografix.com/GPX/1/1/gpx.xsd http://www.garmin.com/xmlschemas/TrackPointExtension/v1 http://www.garmin.com/xmlschemas/TrackPointExtensionv1.xsd">
  <metadata>
    <name>GPS sled</name>
    <desc>www.hribi.net</desc>
    <author>
      <name>hribi.net</name>
    </author>
    <link href="http://www.hribi.net">
      <text>Hribi.net</text>
    </link>
  </metadata>
  <trk>
    <trkseg>
      <trkpt lat="46.358883" lon="14.3905">
        <ele>1122.88317871094</ele>
        <time>2003-09-28T07:34:32Z</time>
      </trkpt>
      <trkpt lat="46.358683" lon="14.390567">
        <ele>1125.01684570313</ele>
        <time>2003-09-28T07:34:32Z</time>
      </trkpt>
      <trkpt lat="46.358583" lon="14.390667">
        <ele>1122.88317871094</ele>
        <time>2003-09-28T07:34:32Z</time>
      </trkpt>
      <trkpt lat="46.35835" lon="14.390717">
        <ele>1118.92077636719</ele>
        <time>2003-09-28T07:34:32Z</time>
      </trkpt>
      <trkpt lat="46.358117" lon="14.390683">
        <ele>1117.09204101563</ele>
        <time>2003-09-28T07:34:32Z</time>
      </trkpt>
      <trkpt lat="46.3574" lon="14.390667">
        <ele>1114.95837402344</ele>
        <time>2003-09-28T07:34:32Z</time>
      </trkpt>
      <trkpt lat="46.357133" lon="14.390667">
        <ele>1118.92077636719</ele>
        <time>2003-09-28T07:34:32Z</time>
      </trkpt>
      <trkpt lat="46.356967" lon="14.390617">
        <ele>1128.97924804687</ele>
        <time>2003-09-28T07:34:32Z</time>
      </trkpt>
      <trkpt lat="46.3567" lon="14.390783">
        <ele>1142.08557128906</ele>
        <time>2003-09-28T07:34:32Z</time>
      </trkpt>
      <trkpt lat="46.356617" lon="14.390983">
        <ele>1151.83923339844</ele>
        <time>2003-09-28T07:34:32Z</time>
      </trkpt>
      <trkpt lat="46.3565" lon="14.39115">
        <ele>1157.02075195313</ele>
        <time>2003-09-28T07:34:32Z</time>
      </trkpt>
      <trkpt lat="46.35635" lon="14.391233">
        <ele>1163.11682128906</ele>
        <time>2003-09-28T07:34:32Z</time>
      </trkpt>
      <trkpt lat="46.35615" lon="14.39135">
        <ele>1154.88720703125</ele>
        <time>2003-09-28T07:34:32Z</time>
      </trkpt>
      <trkpt lat="46.355983" lon="14.391483">
        <ele>1161.89758300781</ele>
        <time>2003-09-28T07:34:32Z</time>
      </trkpt>
      <trkpt lat="46.355867" lon="14.391567">
        <ele>1164.03125</ele>
        <time>2003-09-28T07:34:32Z</time>
      </trkpt>
      <trkpt lat="46.355683" lon="14.3917">
        <ele>1179.880859375</ele>
        <time>2003-09-28T07:34:32Z</time>
      </trkpt>
      <trkpt lat="46.35555" lon="14.391833">
        <ele>1189.93920898438</ele>
        <time>2003-09-28T07:34:32Z</time>
      </trkpt>
      <trkpt lat="46.355417" lon="14.391883">
        <ele>1192.98718261719</ele>
        <time>2003-09-28T07:34:32Z</time>
      </trkpt>
      <trkpt lat="46.355267" lon="14.39195">
        <ele>1204.87438964844</ele>
        <time>2003-09-28T07:34:32Z</time>
      </trkpt>
      <trkpt lat="46.3552" lon="14.392083">
        <ele>1214.01843261719</ele>
        <time>2003-09-28T07:34:32Z</time>
      </trkpt>
      <trkpt lat="46.355117" lon="14.392233">
        <ele>1220.11437988281</ele>
        <time>2003-09-28T07:34:32Z</time>
      </trkpt>
      <trkpt lat="46.355017" lon="14.392383">
        <ele>1231.08715820312</ele>
        <time>2003-09-28T07:34:32Z</time>
      </trkpt>
      <trkpt lat="46.3549" lon="14.39245">
        <ele>1238.09765625</ele>
        <time>2003-09-28T07:34:32Z</time>
      </trkpt>
      <trkpt lat="46.354817" lon="14.3926">
        <ele>1245.10803222656</ele>
        <time>2003-09-28T07:34:32Z</time>
      </trkpt>
      <trkpt lat="46.354717" lon="14.3927">
        <ele>1249.07043457031</ele>
        <time>2003-09-28T07:34:32Z</time>
      </trkpt>
      <trkpt lat="46.35465" lon="14.392917">
        <ele>1265.83435058594</ele>
        <time>2003-09-28T07:34:32Z</time>
      </trkpt>
      <trkpt lat="46.354533" lon="14.393">
        <ele>1270.1015625</ele>
        <time>2003-09-28T07:34:32Z</time>
      </trkpt>
      <trkpt lat="46.354483" lon="14.393167">
        <ele>1277.11206054687</ele>
        <time>2003-09-28T07:34:32Z</time>
      </trkpt>
      <trkpt lat="46.354467" lon="14.393383">
        <ele>1291.1328125</ele>
        <time>2003-09-28T07:34:32Z</time>
      </trkpt>
      <trkpt lat="46.3544" lon="14.393617">
        <ele>1299.97204589844</ele>
        <time>2003-09-28T07:34:32Z</time>
      </trkpt>
      <trkpt lat="46.354233" lon="14.393683">
        <ele>1307.89685058594</ele>
        <time>2003-09-28T07:34:32Z</time>
      </trkpt>
      <trkpt lat="46.354167" lon="14.39385">
        <ele>1321.91760253906</ele>
        <time>2003-09-28T07:34:32Z</time>
      </trkpt>
      <trkpt lat="46.3541" lon="14.394033">
        <ele>1332.89038085937</ele>
        <time>2003-09-28T07:34:32Z</time>
      </trkpt>
      <trkpt lat="46.353967" lon="14.39415">
        <ele>1336.85278320312</ele>
        <time>2003-09-28T07:34:32Z</time>
      </trkpt>
      <trkpt lat="46.353983" lon="14.394333">
        <ele>1341.11999511719</ele>
        <time>2003-09-28T07:34:32Z</time>
      </trkpt>
      <trkpt lat="46.353883" lon="14.394433">
        <ele>1346.91125488281</ele>
        <time>2003-09-28T07:34:32Z</time>
      </trkpt>
      <trkpt lat="46.353783" lon="14.394333">
        <ele>1356.96960449219</ele>
        <time>2003-09-28T07:34:32Z</time>
      </trkpt>
      <trkpt lat="46.35365" lon="14.394367">
        <ele>1364.89440917969</ele>
        <time>2003-09-28T07:34:32Z</time>
      </trkpt>
      <trkpt lat="46.353433" lon="14.394383">
        <ele>1368.85681152344</ele>
        <time>2003-09-28T07:34:32Z</time>
      </trkpt>
      <trkpt lat="46.353317" lon="14.394217">
        <ele>1378.00085449219</ele>
        <time>2003-09-28T07:34:32Z</time>
      </trkpt>
      <trkpt lat="46.3532" lon="14.3943">
        <ele>1378.00085449219</ele>
        <time>2003-09-28T07:34:32Z</time>
      </trkpt>
      <trkpt lat="46.35305" lon="14.394517">
        <ele>1378.00085449219</ele>
        <time>2003-09-28T07:34:32Z</time>
      </trkpt>
      <trkpt lat="46.352933" lon="14.394433">
        <ele>1378.91516113281</ele>
        <time>2003-09-28T07:34:32Z</time>
      </trkpt>
      <trkpt lat="46.3528" lon="14.39455">
        <ele>1378.91516113281</ele>
        <time>2003-09-28T07:34:32Z</time>
      </trkpt>
      <trkpt lat="46.3526" lon="14.39495">
        <ele>1378.91516113281</ele>
        <time>2003-09-28T07:34:32Z</time>
      </trkpt>
      <trkpt lat="46.3526" lon="14.39495">
        <ele>1378.91516113281</ele>
        <time>2003-09-28T07:34:32Z</time>
      </trkpt>
      <trkpt lat="46.352583" lon="14.39485">
        <ele>1418.84399414063</ele>
        <time>2003-09-28T07:34:32Z</time>
      </trkpt>
      <trkpt lat="46.352667" lon="14.394667">
        <ele>1445.05676269531</ele>
        <time>2003-09-28T07:34:32Z</time>
      </trkpt>
      <trkpt lat="46.35275" lon="14.3944">
        <ele>1443.83764648437</ele>
        <time>2003-09-28T07:34:32Z</time>
      </trkpt>
      <trkpt lat="46.35255" lon="14.394417">
        <ele>1448.10485839844</ele>
        <time>2003-09-28T07:34:32Z</time>
      </trkpt>
      <trkpt lat="46.3524" lon="14.394417">
        <ele>1452.98156738281</ele>
        <time>2003-09-28T07:34:32Z</time>
      </trkpt>
      <trkpt lat="46.352267" lon="14.394333">
        <ele>1459.99194335938</ele>
        <time>2003-09-28T07:34:32Z</time>
      </trkpt>
      <trkpt lat="46.352167" lon="14.394383">
        <ele>1459.99194335938</ele>
        <time>2003-09-28T07:34:32Z</time>
      </trkpt>
      <trkpt lat="46.352" lon="14.3943">
        <ele>1464.86877441406</ele>
        <time>2003-09-28T07:34:32Z</time>
      </trkpt>
      <trkpt lat="46.351867" lon="14.394267">
        <ele>1467.91674804687</ele>
        <time>2003-09-28T07:34:32Z</time>
      </trkpt>
      <trkpt lat="46.35175" lon="14.394167">
        <ele>1467.91674804687</ele>
        <time>2003-09-28T07:34:32Z</time>
      </trkpt>
      <trkpt lat="46.351567" lon="14.394267">
        <ele>1467.91674804687</ele>
        <time>2003-09-28T07:34:32Z</time>
      </trkpt>
      <trkpt lat="46.351467" lon="14.3944">
        <ele>1467.91674804687</ele>
        <time>2003-09-28T07:34:32Z</time>
      </trkpt>
      <trkpt lat="46.35135" lon="14.394483">
        <ele>1489.86242675781</ele>
        <time>2003-09-28T07:34:32Z</time>
      </trkpt>
      <trkpt lat="46.351533" lon="14.394617">
        <ele>1527.96240234375</ele>
        <time>2003-09-28T07:34:32Z</time>
      </trkpt>
      <trkpt lat="46.351367" lon="14.394767">
        <ele>1527.96240234375</ele>
        <time>2003-09-28T07:34:32Z</time>
      </trkpt>
      <trkpt lat="46.351267" lon="14.394933">
        <ele>1527.96240234375</ele>
        <time>2003-09-28T07:34:32Z</time>
      </trkpt>
      <trkpt lat="46.351233" lon="14.395083">
        <ele>1527.96240234375</ele>
        <time>2003-09-28T07:34:32Z</time>
      </trkpt>
      <trkpt lat="46.351117" lon="14.395083">
        <ele>1527.96240234375</ele>
        <time>2003-09-28T07:34:32Z</time>
      </trkpt>
      <trkpt lat="46.351017" lon="14.3952">
        <ele>1527.96240234375</ele>
        <time>2003-09-28T07:34:32Z</time>
      </trkpt>
      <trkpt lat="46.350817" lon="14.3953">
        <ele>1527.96240234375</ele>
        <time>2003-09-28T07:34:32Z</time>
      </trkpt>
      <trkpt lat="46.350667" lon="14.395367">
        <ele>1527.96240234375</ele>
        <time>2003-09-28T07:34:32Z</time>
      </trkpt>
      <trkpt lat="46.350567" lon="14.395467">
        <ele>1527.96240234375</ele>
        <time>2003-09-28T07:34:32Z</time>
      </trkpt>
      <trkpt lat="46.350433" lon="14.395433">
        <ele>1527.96240234375</ele>
        <time>2003-09-28T07:34:32Z</time>
      </trkpt>
      <trkpt lat="46.350283" lon="14.395417">
        <ele>1527.96240234375</ele>
        <time>2003-09-28T07:34:32Z</time>
      </trkpt>
      <trkpt lat="46.35015" lon="14.395333">
        <ele>1527.96240234375</ele>
        <time>2003-09-28T07:34:32Z</time>
      </trkpt>
      <trkpt lat="46.349983" lon="14.395333">
        <ele>1527.96240234375</ele>
        <time>2003-09-28T07:34:32Z</time>
      </trkpt>
      <trkpt lat="46.349767" lon="14.39535">
        <ele>1527.96240234375</ele>
        <time>2003-09-28T07:34:32Z</time>
      </trkpt>
      <trkpt lat="46.349567" lon="14.395283">
        <ele>1527.96240234375</ele>
        <time>2003-09-28T07:34:32Z</time>
      </trkpt>
      <trkpt lat="46.349417" lon="14.39535">
        <ele>1527.96240234375</ele>
        <time>2003-09-28T07:34:32Z</time>
      </trkpt>
      <trkpt lat="46.3494" lon="14.395517">
        <ele>1527.96240234375</ele>
        <time>2003-09-28T07:34:32Z</time>
      </trkpt>
      <trkpt lat="46.349717" lon="14.395667">
        <ele>1538.02075195313</ele>
        <time>2003-09-28T07:34:32Z</time>
      </trkpt>
      <trkpt lat="46.350067" lon="14.395733">
        <ele>1556.91845703125</ele>
        <time>2003-09-28T07:34:32Z</time>
      </trkpt>
      <trkpt lat="46.3504" lon="14.395933">
        <ele>1726.99682617187</ele>
        <time>2003-09-28T07:34:32Z</time>
      </trkpt>
      <trkpt lat="46.3502" lon="14.395983">
        <ele>1737.96960449219</ele>
        <time>2003-09-28T07:34:32Z</time>
      </trkpt>
      <trkpt lat="46.350117" lon="14.395883">
        <ele>1759.91516113281</ele>
        <time>2003-09-28T07:34:32Z</time>
      </trkpt>
      <trkpt lat="46.3500213623047" lon="14.3958215713501">
        <ele>1773.02160644531</ele>
        <time>2003-09-28T07:34:32Z</time>
      </trkpt>
      <trkpt lat="46.349867" lon="14.395767">
        <ele>1773.02160644531</ele>
        <time>2003-09-28T07:34:32Z</time>
      </trkpt>
      <trkpt lat="46.349733" lon="14.395767">
        <ele>1784.90881347656</ele>
        <time>2003-09-28T07:34:32Z</time>
      </trkpt>
      <trkpt lat="46.349733" lon="14.395767">
        <ele>1794.96716308594</ele>
        <time>2003-09-28T07:34:32Z</time>
      </trkpt>
      <trkpt lat="46.3496" lon="14.395733">
        <ele>1808.07360839844</ele>
        <time>2003-09-28T07:34:32Z</time>
      </trkpt>
      <trkpt lat="46.349483" lon="14.395833">
        <ele>1811.12158203125</ele>
        <time>2003-09-28T07:34:32Z</time>
      </trkpt>
      <trkpt lat="46.349333" lon="14.395883">
        <ele>1815.083984375</ele>
        <time>2003-09-28T07:34:32Z</time>
      </trkpt>
      <trkpt lat="46.3492" lon="14.395983">
        <ele>1840.07763671875</ele>
        <time>2003-09-28T07:34:32Z</time>
      </trkpt>
      <trkpt lat="46.349117" lon="14.3962">
        <ele>1840.99194335938</ele>
        <time>2003-09-28T07:34:32Z</time>
      </trkpt>
      <trkpt lat="46.349067" lon="14.396367">
        <ele>1852.87915039062</ele>
        <time>2003-09-28T07:34:32Z</time>
      </trkpt>
      <trkpt lat="46.3491" lon="14.396583">
        <ele>1849.83117675781</ele>
        <time>2003-09-28T07:34:32Z</time>
      </trkpt>
      <trkpt lat="46.3491" lon="14.3968">
        <ele>1852.87915039062</ele>
        <time>2003-09-28T07:34:32Z</time>
      </trkpt>
      <trkpt lat="46.3491" lon="14.397033">
        <ele>1858.06079101562</ele>
        <time>2003-09-28T07:34:32Z</time>
      </trkpt>
      <trkpt lat="46.348967" lon="14.3972">
        <ele>1865.98559570312</ele>
        <time>2003-09-28T07:34:32Z</time>
      </trkpt>
      <trkpt lat="46.348983" lon="14.397433">
        <ele>1876.0439453125</ele>
        <time>2003-09-28T07:34:32Z</time>
      </trkpt>
      <trkpt lat="46.34895" lon="14.397667">
        <ele>1883.96875</ele>
        <time>2003-09-28T07:34:32Z</time>
      </trkpt>
      <trkpt lat="46.348967" lon="14.39785">
        <ele>1887.01684570313</ele>
        <time>2003-09-28T07:34:32Z</time>
      </trkpt>
      <trkpt lat="46.349" lon="14.39805">
        <ele>1891.8935546875</ele>
        <time>2003-09-28T07:34:32Z</time>
      </trkpt>
      <trkpt lat="46.349083" lon="14.398183">
        <ele>1901.95202636719</ele>
        <time>2003-09-28T07:34:32Z</time>
      </trkpt>
      <trkpt lat="46.349133" lon="14.398333">
        <ele>1912.9248046875</ele>
        <time>2003-09-28T07:34:32Z</time>
      </trkpt>
      <trkpt lat="46.349167" lon="14.398533">
        <ele>1916.88720703125</ele>
        <time>2003-09-28T07:34:32Z</time>
      </trkpt>
      <trkpt lat="46.349283" lon="14.398533">
        <ele>1925.11682128906</ele>
        <time>2003-09-28T07:34:32Z</time>
      </trkpt>
      <trkpt lat="46.349417" lon="14.398517">
        <ele>1950.1103515625</ele>
        <time>2003-09-28T07:34:32Z</time>
      </trkpt>
      <trkpt lat="46.34955" lon="14.3985">
        <ele>1951.93920898438</ele>
        <time>2003-09-28T07:34:32Z</time>
      </trkpt>
      <trkpt lat="46.349483" lon="14.398833">
        <ele>1961.08325195312</ele>
        <time>2003-09-28T07:34:32Z</time>
      </trkpt>
      <trkpt lat="46.3494" lon="14.398983">
        <ele>1968.09362792969</ele>
        <time>2003-09-28T07:34:32Z</time>
      </trkpt>
      <trkpt lat="46.349567" lon="14.399033">
        <ele>1972.05603027344</ele>
        <time>2003-09-28T07:34:32Z</time>
      </trkpt>
      <trkpt lat="46.3497" lon="14.399017">
        <ele>1980.89514160156</ele>
        <time>2003-09-28T07:34:32Z</time>
      </trkpt>
      <trkpt lat="46.349617" lon="14.39915">
        <ele>2000.09765625</ele>
        <time>2003-09-28T07:34:32Z</time>
      </trkpt>
      <trkpt lat="46.3496" lon="14.39935">
        <ele>2014.11840820312</ele>
        <time>2003-09-28T07:34:32Z</time>
      </trkpt>
      <trkpt lat="46.349617" lon="14.399567">
        <ele>2014.11840820312</ele>
        <time>2003-09-28T07:34:32Z</time>
      </trkpt>
      <trkpt lat="46.349683" lon="14.399733">
        <ele>2022.95764160156</ele>
        <time>2003-09-28T07:34:32Z</time>
      </trkpt>
      <trkpt lat="46.349783" lon="14.3999">
        <ele>2033.93041992187</ele>
        <time>2003-09-28T07:34:32Z</time>
      </trkpt>
      <trkpt lat="46.349833" lon="14.400167">
        <ele>2037.89282226562</ele>
        <time>2003-09-28T07:34:32Z</time>
      </trkpt>
      <trkpt lat="46.349967" lon="14.400283">
        <ele>2047.951171875</ele>
        <time>2003-09-28T07:34:32Z</time>
      </trkpt>
      <trkpt lat="46.35" lon="14.4006">
        <ele>2052.82788085937</ele>
        <time>2003-09-28T07:34:32Z</time>
      </trkpt>
      <trkpt lat="46.349967" lon="14.400883">
        <ele>2051.91357421875</ele>
        <time>2003-09-28T07:34:32Z</time>
      </trkpt>
      <trkpt lat="46.3499" lon="14.40105">
        <ele>2050.99926757813</ele>
        <time>2003-09-28T07:34:32Z</time>
      </trkpt>
      <trkpt lat="46.3499" lon="14.4013">
        <ele>2057.09521484375</ele>
        <time>2003-09-28T07:34:32Z</time>
      </trkpt>
      <trkpt lat="46.349867" lon="14.40155">
        <ele>2059.83837890625</ele>
        <time>2003-09-28T07:34:32Z</time>
      </trkpt>
      <trkpt lat="46.349883" lon="14.401767">
        <ele>2059.83837890625</ele>
        <time>2003-09-28T07:34:32Z</time>
      </trkpt>
      <trkpt lat="46.349867" lon="14.401967">
        <ele>2066.84887695312</ele>
        <time>2003-09-28T07:34:32Z</time>
      </trkpt>
      <trkpt lat="46.349783" lon="14.402167">
        <ele>2078.12646484375</ele>
        <time>2003-09-28T07:34:32Z</time>
      </trkpt>
      <trkpt lat="46.3498" lon="14.402367">
        <ele>2079.955078125</ele>
        <time>2003-09-28T07:34:32Z</time>
      </trkpt>
      <trkpt lat="46.3498" lon="14.402633">
        <ele>2080.86962890625</ele>
        <time>2003-09-28T07:34:32Z</time>
      </trkpt>
      <trkpt lat="46.34975" lon="14.402817">
        <ele>2094.89038085937</ele>
        <time>2003-09-28T07:34:32Z</time>
      </trkpt>
      <trkpt lat="46.349683" lon="14.402967">
        <ele>2100.07202148437</ele>
        <time>2003-09-28T07:34:32Z</time>
      </trkpt>
      <trkpt lat="46.34965" lon="14.403233">
        <ele>2104.03442382812</ele>
        <time>2003-09-28T07:34:32Z</time>
      </trkpt>
      <trkpt lat="46.349633" lon="14.4035">
        <ele>2107.99682617187</ele>
        <time>2003-09-28T07:34:32Z</time>
      </trkpt>
      <trkpt lat="46.349733" lon="14.403683">
        <ele>2116.8359375</ele>
        <time>2003-09-28T07:34:32Z</time>
      </trkpt>
      <trkpt lat="46.3497" lon="14.403883">
        <ele>2121.10327148438</ele>
        <time>2003-09-28T07:34:32Z</time>
      </trkpt>
      <trkpt lat="46.3498" lon="14.404183">
        <ele>2125.06567382813</ele>
        <time>2003-09-28T07:34:32Z</time>
      </trkpt>
      <trkpt lat="46.3498" lon="14.404417">
        <ele>2123.84643554688</ele>
        <time>2003-09-28T07:34:32Z</time>
      </trkpt>
      <trkpt lat="46.3499" lon="14.404683">
        <ele>2122.017578125</ele>
        <time>2003-09-28T07:34:32Z</time>
      </trkpt>
      <trkpt lat="46.350033" lon="14.40475">
        <ele>2128.11352539063</ele>
        <time>2003-09-28T07:34:32Z</time>
      </trkpt>
      <trkpt lat="46.350117" lon="14.4049">
        <ele>2132.99047851562</ele>
        <time>2003-09-28T07:34:32Z</time>
      </trkpt>
      <trkpt lat="46.35025" lon="14.404767">
        <ele>2136.03833007812</ele>
        <time>2003-09-28T07:34:32Z</time>
      </trkpt>
      <trkpt lat="46.350317" lon="14.404633">
        <ele>2135.1240234375</ele>
        <time>2003-09-28T07:34:32Z</time>
      </trkpt>
      <trkpt lat="46.350417" lon="14.4044">
        <ele>2122.017578125</ele>
        <time>2003-09-28T07:34:32Z</time>
      </trkpt>
      <trkpt lat="46.350583" lon="14.40425">
        <ele>2112.87353515625</ele>
        <time>2003-09-28T07:34:32Z</time>
      </trkpt>
      <trkpt lat="46.3507" lon="14.404283">
        <ele>2101.90087890625</ele>
        <time>2003-09-28T07:34:32Z</time>
      </trkpt>
      <trkpt lat="46.3508" lon="14.4044">
        <ele>2091.84228515625</ele>
        <time>2003-09-28T07:34:32Z</time>
      </trkpt>
      <trkpt lat="46.350767" lon="14.404617">
        <ele>2080.86962890625</ele>
        <time>2003-09-28T07:34:32Z</time>
      </trkpt>
      <trkpt lat="46.350833" lon="14.404817">
        <ele>2072.03051757812</ele>
        <time>2003-09-28T07:34:32Z</time>
      </trkpt>
      <trkpt lat="46.350833" lon="14.404983">
        <ele>2062.88647460937</ele>
        <time>2003-09-28T07:34:32Z</time>
      </trkpt>
      <trkpt lat="46.350867" lon="14.405167">
        <ele>2058.00952148438</ele>
        <time>2003-09-28T07:34:32Z</time>
      </trkpt>
      <trkpt lat="46.35095" lon="14.4053">
        <ele>2052.82788085937</ele>
        <time>2003-09-28T07:34:32Z</time>
      </trkpt>
      <trkpt lat="46.35105" lon="14.40545">
        <ele>2048.86547851563</ele>
        <time>2003-09-28T07:34:32Z</time>
      </trkpt>
      <trkpt lat="46.351167" lon="14.405567">
        <ele>2039.11206054687</ele>
        <time>2003-09-28T07:34:32Z</time>
      </trkpt>
      <trkpt lat="46.351217" lon="14.4059">
        <ele>2023.87194824219</ele>
        <time>2003-09-28T07:34:32Z</time>
      </trkpt>
      <trkpt lat="46.351367" lon="14.406417">
        <ele>2016.86157226563</ele>
        <time>2003-09-28T07:34:32Z</time>
      </trkpt>
      <trkpt lat="46.351533" lon="14.406433">
        <ele>2009.85119628906</ele>
        <time>2003-09-28T07:34:32Z</time>
      </trkpt>
      <trkpt lat="46.35165" lon="14.406533">
        <ele>1997.04956054687</ele>
        <time>2003-09-28T07:34:32Z</time>
      </trkpt>
      <trkpt lat="46.351833" lon="14.406517">
        <ele>1986.07678222656</ele>
        <time>2003-09-28T07:34:32Z</time>
      </trkpt>
      <trkpt lat="46.35205" lon="14.4066">
        <ele>1980.89514160156</ele>
        <time>2003-09-28T07:34:32Z</time>
      </trkpt>
      <trkpt lat="46.352217" lon="14.406633">
        <ele>1973.884765625</ele>
        <time>2003-09-28T07:34:32Z</time>
      </trkpt>
      <trkpt lat="46.352333" lon="14.406683">
        <ele>1969.00805664062</ele>
        <time>2003-09-28T07:34:32Z</time>
      </trkpt>
      <trkpt lat="46.35245" lon="14.40655">
        <ele>1954.98718261719</ele>
        <time>2003-09-28T07:34:32Z</time>
      </trkpt>
      <trkpt lat="46.352533" lon="14.406417">
        <ele>1952.85363769531</ele>
        <time>2003-09-28T07:34:32Z</time>
      </trkpt>
      <trkpt lat="46.352683" lon="14.40635">
        <ele>1947.97680664063</ele>
        <time>2003-09-28T07:34:32Z</time>
      </trkpt>
      <trkpt lat="46.352817" lon="14.4063">
        <ele>1944.01440429688</ele>
        <time>2003-09-28T07:34:32Z</time>
      </trkpt>
      <trkpt lat="46.352933" lon="14.40635">
        <ele>1937.00402832031</ele>
        <time>2003-09-28T07:34:32Z</time>
      </trkpt>
      <trkpt lat="46.352983" lon="14.40655">
        <ele>1932.12719726562</ele>
        <time>2003-09-28T07:34:32Z</time>
      </trkpt>
      <trkpt lat="46.353083" lon="14.406817">
        <ele>1920.849609375</ele>
        <time>2003-09-28T07:34:32Z</time>
      </trkpt>
      <trkpt lat="46.353283" lon="14.406917">
        <ele>1911.09594726563</ele>
        <time>2003-09-28T07:34:32Z</time>
      </trkpt>
      <trkpt lat="46.353417" lon="14.407017">
        <ele>1902.86645507813</ele>
        <time>2003-09-28T07:34:32Z</time>
      </trkpt>
      <trkpt lat="46.35355" lon="14.4071">
        <ele>1893.11279296875</ele>
        <time>2003-09-28T07:34:32Z</time>
      </trkpt>
      <trkpt lat="46.3537" lon="14.407067">
        <ele>1884.88317871094</ele>
        <time>2003-09-28T07:34:32Z</time>
      </trkpt>
      <trkpt lat="46.353817" lon="14.407017">
        <ele>1876.0439453125</ele>
        <time>2003-09-28T07:34:32Z</time>
      </trkpt>
      <trkpt lat="46.354" lon="14.407267">
        <ele>1861.10876464844</ele>
        <time>2003-09-28T07:34:32Z</time>
      </trkpt>
      <trkpt lat="46.35415" lon="14.4073">
        <ele>1858.06079101562</ele>
        <time>2003-09-28T07:34:32Z</time>
      </trkpt>
      <trkpt lat="46.354283" lon="14.407433">
        <ele>1856.84155273437</ele>
        <time>2003-09-28T07:34:32Z</time>
      </trkpt>
      <trkpt lat="46.3545" lon="14.4076">
        <ele>1847.08801269531</ele>
        <time>2003-09-28T07:34:32Z</time>
      </trkpt>
      <trkpt lat="46.354683" lon="14.40765">
        <ele>1849.83117675781</ele>
        <time>2003-09-28T07:34:32Z</time>
      </trkpt>
      <trkpt lat="46.354833" lon="14.40775">
        <ele>1852.87915039062</ele>
        <time>2003-09-28T07:34:32Z</time>
      </trkpt>
      <trkpt lat="46.354983" lon="14.407733">
        <ele>1852.87915039062</ele>
        <time>2003-09-28T07:34:32Z</time>
      </trkpt>
      <trkpt lat="46.355133" lon="14.407717">
        <ele>1849.83117675781</ele>
        <time>2003-09-28T07:34:32Z</time>
      </trkpt>
      <trkpt lat="46.3553" lon="14.407833">
        <ele>1851.05041503906</ele>
        <time>2003-09-28T07:34:32Z</time>
      </trkpt>
      <trkpt lat="46.355483" lon="14.407783">
        <ele>1847.08801269531</ele>
        <time>2003-09-28T07:34:32Z</time>
      </trkpt>
      <trkpt lat="46.3557" lon="14.407633">
        <ele>1838.8583984375</ele>
        <time>2003-09-28T07:34:32Z</time>
      </trkpt>
      <trkpt lat="46.355933" lon="14.407483">
        <ele>1833.06726074219</ele>
        <time>2003-09-28T07:34:32Z</time>
      </trkpt>
      <trkpt lat="46.356067" lon="14.4074">
        <ele>1829.10485839844</ele>
        <time>2003-09-28T07:34:32Z</time>
      </trkpt>
      <trkpt lat="46.35625" lon="14.407433">
        <ele>1816.91284179687</ele>
        <time>2003-09-28T07:34:32Z</time>
      </trkpt>
      <trkpt lat="46.356417" lon="14.4074">
        <ele>1801.9775390625</ele>
        <time>2003-09-28T07:34:32Z</time>
      </trkpt>
      <trkpt lat="46.35655" lon="14.407417">
        <ele>1794.05285644531</ele>
        <time>2003-09-28T07:34:32Z</time>
      </trkpt>
      <trkpt lat="46.35685" lon="14.407567">
        <ele>1791.91918945312</ele>
        <time>2003-09-28T07:34:32Z</time>
      </trkpt>
      <trkpt lat="46.35715" lon="14.407567">
        <ele>1795.88159179688</ele>
        <time>2003-09-28T07:34:32Z</time>
      </trkpt>
      <trkpt lat="46.357333" lon="14.407617">
        <ele>1792.83361816406</ele>
        <time>2003-09-28T07:34:32Z</time>
      </trkpt>
      <trkpt lat="46.35755" lon="14.40765">
        <ele>1790.09045410156</ele>
        <time>2003-09-28T07:34:32Z</time>
      </trkpt>
      <trkpt lat="46.357667" lon="14.40745">
        <ele>1784.90881347656</ele>
        <time>2003-09-28T07:34:32Z</time>
      </trkpt>
      <trkpt lat="46.3582" lon="14.407383">
        <ele>1769.05920410156</ele>
        <time>2003-09-28T07:34:32Z</time>
      </trkpt>
      <trkpt lat="46.358333" lon="14.407333">
        <ele>1766.01123046875</ele>
        <time>2003-09-28T07:34:32Z</time>
      </trkpt>
      <trkpt lat="46.35855" lon="14.4073">
        <ele>1760.82958984375</ele>
        <time>2003-09-28T07:34:32Z</time>
      </trkpt>
      <trkpt lat="46.358733" lon="14.40725">
        <ele>1756.8671875</ele>
        <time>2003-09-28T07:34:32Z</time>
      </trkpt>
      <trkpt lat="46.3589" lon="14.407183">
        <ele>1751.99035644531</ele>
        <time>2003-09-28T07:34:32Z</time>
      </trkpt>
      <trkpt lat="46.35915" lon="14.407117">
        <ele>1745.89440917969</ele>
        <time>2003-09-28T07:34:32Z</time>
      </trkpt>
      <trkpt lat="46.3594" lon="14.40695">
        <ele>1741.017578125</ele>
        <time>2003-09-28T07:34:32Z</time>
      </trkpt>
      <trkpt lat="46.359617" lon="14.406867">
        <ele>1737.05517578125</ele>
        <time>2003-09-28T07:34:32Z</time>
      </trkpt>
      <trkpt lat="46.359833" lon="14.40685">
        <ele>1734.00720214844</ele>
        <time>2003-09-28T07:34:32Z</time>
      </trkpt>
      <trkpt lat="46.359967" lon="14.406683">
        <ele>1730.04479980469</ele>
        <time>2003-09-28T07:34:32Z</time>
      </trkpt>
      <trkpt lat="46.3601" lon="14.406567">
        <ele>1726.08239746094</ele>
        <time>2003-09-28T07:34:32Z</time>
      </trkpt>
      <trkpt lat="46.360117" lon="14.406267">
        <ele>1719.07202148437</ele>
        <time>2003-09-28T07:34:32Z</time>
      </trkpt>
      <trkpt lat="46.360233" lon="14.4061">
        <ele>1715.10961914063</ele>
        <time>2003-09-28T07:34:32Z</time>
      </trkpt>
      <trkpt lat="46.360433" lon="14.406067">
        <ele>1710.84240722656</ele>
        <time>2003-09-28T07:34:32Z</time>
      </trkpt>
      <trkpt lat="46.3606" lon="14.405967">
        <ele>1703.83203125</ele>
        <time>2003-09-28T07:34:32Z</time>
      </trkpt>
      <trkpt lat="46.360683" lon="14.405833">
        <ele>1698.04077148438</ele>
        <time>2003-09-28T07:34:32Z</time>
      </trkpt>
      <trkpt lat="46.360733" lon="14.405667">
        <ele>1692.85925292969</ele>
        <time>2003-09-28T07:34:32Z</time>
      </trkpt>
      <trkpt lat="46.36085" lon="14.4055">
        <ele>1688.89685058594</ele>
        <time>2003-09-28T07:34:32Z</time>
      </trkpt>
      <trkpt lat="46.36095" lon="14.405383">
        <ele>1685.84875488281</ele>
        <time>2003-09-28T07:34:32Z</time>
      </trkpt>
      <trkpt lat="46.361067" lon="14.4053">
        <ele>1681.88635253906</ele>
        <time>2003-09-28T07:34:32Z</time>
      </trkpt>
      <trkpt lat="46.361283" lon="14.4052">
        <ele>1681.88635253906</ele>
        <time>2003-09-28T07:34:32Z</time>
      </trkpt>
      <trkpt lat="46.361417" lon="14.4051">
        <ele>1683.10559082031</ele>
        <time>2003-09-28T07:34:32Z</time>
      </trkpt>
      <trkpt lat="46.361567" lon="14.405067">
        <ele>1684.93444824219</ele>
        <time>2003-09-28T07:34:32Z</time>
      </trkpt>
      <trkpt lat="46.3615" lon="14.404917">
        <ele>1691.03039550781</ele>
        <time>2003-09-28T07:34:32Z</time>
      </trkpt>
      <trkpt lat="46.36135" lon="14.404867">
        <ele>1677.00964355469</ele>
        <time>2003-09-28T07:34:32Z</time>
      </trkpt>
      <trkpt lat="46.361217" lon="14.404817">
        <ele>1677.92395019531</ele>
        <time>2003-09-28T07:34:32Z</time>
      </trkpt>
      <trkpt lat="46.3611" lon="14.404733">
        <ele>1670.91357421875</ele>
        <time>2003-09-28T07:34:32Z</time>
      </trkpt>
      <trkpt lat="46.360867" lon="14.404567">
        <ele>1662.98876953125</ele>
        <time>2003-09-28T07:34:32Z</time>
      </trkpt>
      <trkpt lat="46.360683" lon="14.404533">
        <ele>1655.97839355469</ele>
        <time>2003-09-28T07:34:32Z</time>
      </trkpt>
      <trkpt lat="46.36055" lon="14.40445">
        <ele>1655.97839355469</ele>
        <time>2003-09-28T07:34:32Z</time>
      </trkpt>
      <trkpt lat="46.36045" lon="14.404333">
        <ele>1649.88244628906</ele>
        <time>2003-09-28T07:34:32Z</time>
      </trkpt>
      <trkpt lat="46.360317" lon="14.40425">
        <ele>1645.92004394531</ele>
        <time>2003-09-28T07:34:32Z</time>
      </trkpt>
      <trkpt lat="46.3602" lon="14.404133">
        <ele>1641.95764160156</ele>
        <time>2003-09-28T07:34:32Z</time>
      </trkpt>
      <trkpt lat="46.360117" lon="14.404017">
        <ele>1634.94714355469</ele>
        <time>2003-09-28T07:34:32Z</time>
      </trkpt>
      <trkpt lat="46.35985" lon="14.40385">
        <ele>1621.8408203125</ele>
        <time>2003-09-28T07:34:32Z</time>
      </trkpt>
      <trkpt lat="46.35965" lon="14.40375">
        <ele>1609.03918457031</ele>
        <time>2003-09-28T07:34:32Z</time>
      </trkpt>
      <trkpt lat="46.3594" lon="14.403717">
        <ele>1601.11437988281</ele>
        <time>2003-09-28T07:34:32Z</time>
      </trkpt>
      <trkpt lat="46.359117" lon="14.403617">
        <ele>1598.06640625</ele>
        <time>2003-09-28T07:34:32Z</time>
      </trkpt>
      <trkpt lat="46.358967" lon="14.40355">
        <ele>1599.89514160156</ele>
        <time>2003-09-28T07:34:32Z</time>
      </trkpt>
      <trkpt lat="46.358817" lon="14.403483">
        <ele>1591.97045898437</ele>
        <time>2003-09-28T07:34:32Z</time>
      </trkpt>
      <trkpt lat="46.35865" lon="14.403333">
        <ele>1584.9599609375</ele>
        <time>2003-09-28T07:34:32Z</time>
      </trkpt>
      <trkpt lat="46.358567" lon="14.403083">
        <ele>1573.98718261719</ele>
        <time>2003-09-28T07:34:32Z</time>
      </trkpt>
      <trkpt lat="46.358567" lon="14.402917">
        <ele>1570.02478027344</ele>
        <time>2003-09-28T07:34:32Z</time>
      </trkpt>
      <trkpt lat="46.3586" lon="14.402683">
        <ele>1562.09997558594</ele>
        <time>2003-09-28T07:34:32Z</time>
      </trkpt>
      <trkpt lat="46.35855" lon="14.402433">
        <ele>1555.08959960937</ele>
        <time>2003-09-28T07:34:32Z</time>
      </trkpt>
      <trkpt lat="46.358483" lon="14.402283">
        <ele>1545.94555664062</ele>
        <time>2003-09-28T07:34:32Z</time>
      </trkpt>
      <trkpt lat="46.35855" lon="14.402033">
        <ele>1535.88720703125</ele>
        <time>2003-09-28T07:34:32Z</time>
      </trkpt>
      <trkpt lat="46.358517" lon="14.40185">
        <ele>1524.91442871094</ele>
        <time>2003-09-28T07:34:32Z</time>
      </trkpt>
      <trkpt lat="46.35855" lon="14.40165">
        <ele>1521.86645507813</ele>
        <time>2003-09-28T07:34:32Z</time>
      </trkpt>
      <trkpt lat="46.358633" lon="14.4015">
        <ele>1516.98962402344</ele>
        <time>2003-09-28T07:34:32Z</time>
      </trkpt>
      <trkpt lat="46.358717" lon="14.40135">
        <ele>1516.0751953125</ele>
        <time>2003-09-28T07:34:32Z</time>
      </trkpt>
      <trkpt lat="46.3588" lon="14.401167">
        <ele>1507.84558105469</ele>
        <time>2003-09-28T07:34:32Z</time>
      </trkpt>
      <trkpt lat="46.358867" lon="14.401">
        <ele>1506.01684570313</ele>
        <time>2003-09-28T07:34:32Z</time>
      </trkpt>
      <trkpt lat="46.358867" lon="14.400817">
        <ele>1502.05444335938</ele>
        <time>2003-09-28T07:34:32Z</time>
      </trkpt>
      <trkpt lat="46.35895" lon="14.400667">
        <ele>1500.83520507813</ele>
        <time>2003-09-28T07:34:32Z</time>
      </trkpt>
      <trkpt lat="46.35895" lon="14.400367">
        <ele>1488.94799804688</ele>
        <time>2003-09-28T07:34:32Z</time>
      </trkpt>
      <trkpt lat="46.359017" lon="14.400167">
        <ele>1488.94799804688</ele>
        <time>2003-09-28T07:34:32Z</time>
      </trkpt>
      <trkpt lat="46.359133" lon="14.400033">
        <ele>1480.10876464844</ele>
        <time>2003-09-28T07:34:32Z</time>
      </trkpt>
      <trkpt lat="46.359167" lon="14.399867">
        <ele>1474.01281738281</ele>
        <time>2003-09-28T07:34:32Z</time>
      </trkpt>
      <trkpt lat="46.359283" lon="14.399683">
        <ele>1468.83117675781</ele>
        <time>2003-09-28T07:34:32Z</time>
      </trkpt>
      <trkpt lat="46.35935" lon="14.3995">
        <ele>1462.12561035156</ele>
        <time>2003-09-28T07:34:32Z</time>
      </trkpt>
      <trkpt lat="46.35935" lon="14.39925">
        <ele>1460.90637207031</ele>
        <time>2003-09-28T07:34:32Z</time>
      </trkpt>
      <trkpt lat="46.359217" lon="14.398917">
        <ele>1456.02954101563</ele>
        <time>2003-09-28T07:34:32Z</time>
      </trkpt>
      <trkpt lat="46.359083" lon="14.3988">
        <ele>1438.04638671875</ele>
        <time>2003-09-28T07:34:32Z</time>
      </trkpt>
      <trkpt lat="46.358967" lon="14.398633">
        <ele>1431.95043945313</ele>
        <time>2003-09-28T07:34:32Z</time>
      </trkpt>
      <trkpt lat="46.358817" lon="14.398567">
        <ele>1427.07360839844</ele>
        <time>2003-09-28T07:34:32Z</time>
      </trkpt>
      <trkpt lat="46.35865" lon="14.398467">
        <ele>1417.01525878906</ele>
        <time>2003-09-28T07:34:32Z</time>
      </trkpt>
      <trkpt lat="46.358433" lon="14.398367">
        <ele>1407.87121582031</ele>
        <time>2003-09-28T07:34:32Z</time>
      </trkpt>
      <trkpt lat="46.358217" lon="14.39815">
        <ele>1399.94641113281</ele>
        <time>2003-09-28T07:34:32Z</time>
      </trkpt>
      <trkpt lat="46.358117" lon="14.39795">
        <ele>1393.85034179688</ele>
        <time>2003-09-28T07:34:32Z</time>
      </trkpt>
      <trkpt lat="46.358033" lon="14.397783">
        <ele>1386.83996582031</ele>
        <time>2003-09-28T07:34:32Z</time>
      </trkpt>
      <trkpt lat="46.357833" lon="14.397617">
        <ele>1380.13439941406</ele>
        <time>2003-09-28T07:34:32Z</time>
      </trkpt>
      <trkpt lat="46.3577" lon="14.397617">
        <ele>1370.99035644531</ele>
        <time>2003-09-28T07:34:32Z</time>
      </trkpt>
      <trkpt lat="46.357567" lon="14.3975">
        <ele>1364.89440917969</ele>
        <time>2003-09-28T07:34:32Z</time>
      </trkpt>
      <trkpt lat="46.357417" lon="14.397483">
        <ele>1349.95922851562</ele>
        <time>2003-09-28T07:34:32Z</time>
      </trkpt>
      <trkpt lat="46.35725" lon="14.397267">
        <ele>1349.04479980469</ele>
        <time>2003-09-28T07:34:32Z</time>
      </trkpt>
      <trkpt lat="46.357133" lon="14.397117">
        <ele>1348.13037109375</ele>
        <time>2003-09-28T07:34:32Z</time>
      </trkpt>
      <trkpt lat="46.356983" lon="14.396917">
        <ele>1339.90075683594</ele>
        <time>2003-09-28T07:34:32Z</time>
      </trkpt>
      <trkpt lat="46.35695" lon="14.396733">
        <ele>1328.92797851562</ele>
        <time>2003-09-28T07:34:32Z</time>
      </trkpt>
      <trkpt lat="46.356867" lon="14.3966">
        <ele>1318.86962890625</ele>
        <time>2003-09-28T07:34:32Z</time>
      </trkpt>
      <trkpt lat="46.3568" lon="14.396383">
        <ele>1309.11596679687</ele>
        <time>2003-09-28T07:34:32Z</time>
      </trkpt>
      <trkpt lat="46.3567" lon="14.396017">
        <ele>1313.07836914062</ele>
        <time>2003-09-28T07:34:32Z</time>
      </trkpt>
      <trkpt lat="46.356517" lon="14.3957">
        <ele>1309.11596679687</ele>
        <time>2003-09-28T07:34:32Z</time>
      </trkpt>
      <trkpt lat="46.356333" lon="14.3955">
        <ele>1303.02001953125</ele>
        <time>2003-09-28T07:34:32Z</time>
      </trkpt>
      <trkpt lat="46.356183" lon="14.3952">
        <ele>1306.06799316406</ele>
        <time>2003-09-28T07:34:32Z</time>
      </trkpt>
      <trkpt lat="46.356067" lon="14.395">
        <ele>1296.92395019531</ele>
        <time>2003-09-28T07:34:32Z</time>
      </trkpt>
      <trkpt lat="46.35605" lon="14.394833">
        <ele>1292.04724121094</ele>
        <time>2003-09-28T07:34:32Z</time>
      </trkpt>
      <trkpt lat="46.356133" lon="14.394667">
        <ele>1281.07434082031</ele>
        <time>2003-09-28T07:34:32Z</time>
      </trkpt>
      <trkpt lat="46.356167" lon="14.394467">
        <ele>1268.88244628906</ele>
        <time>2003-09-28T07:34:32Z</time>
      </trkpt>
      <trkpt lat="46.356283" lon="14.39425">
        <ele>1253.94714355469</ele>
        <time>2003-09-28T07:34:32Z</time>
      </trkpt>
      <trkpt lat="46.356233" lon="14.39405">
        <ele>1246.93676757813</ele>
        <time>2003-09-28T07:34:32Z</time>
      </trkpt>
      <trkpt lat="46.356317" lon="14.393867">
        <ele>1239.92639160156</ele>
        <time>2003-09-28T07:34:32Z</time>
      </trkpt>
      <trkpt lat="46.35635" lon="14.39365">
        <ele>1236.87841796875</ele>
        <time>2003-09-28T07:34:32Z</time>
      </trkpt>
      <trkpt lat="46.3565" lon="14.39345">
        <ele>1232.00158691406</ele>
        <time>2003-09-28T07:34:32Z</time>
      </trkpt>
      <trkpt lat="46.356467" lon="14.3932">
        <ele>1235.04956054687</ele>
        <time>2003-09-28T07:34:32Z</time>
      </trkpt>
      <trkpt lat="46.356517" lon="14.392933">
        <ele>1229.86804199219</ele>
        <time>2003-09-28T07:34:32Z</time>
      </trkpt>
      <trkpt lat="46.356517" lon="14.392733">
        <ele>1228.95361328125</ele>
        <time>2003-09-28T07:34:32Z</time>
      </trkpt>
      <trkpt lat="46.356467" lon="14.3924">
        <ele>1256.08081054688</ele>
        <time>2003-09-28T07:34:32Z</time>
      </trkpt>
      <trkpt lat="46.35645" lon="14.392133">
        <ele>1264.92004394531</ele>
        <time>2003-09-28T07:34:32Z</time>
      </trkpt>
      <trkpt lat="46.3564" lon="14.39195">
        <ele>1268.88244628906</ele>
        <time>2003-09-28T07:34:32Z</time>
      </trkpt>
      <trkpt lat="46.356317" lon="14.391733">
        <ele>1267.05358886719</ele>
        <time>2003-09-28T07:34:32Z</time>
      </trkpt>
      <trkpt lat="46.35635" lon="14.3914">
        <ele>1267.05358886719</ele>
        <time>2003-09-28T07:34:32Z</time>
      </trkpt>
      <trkpt lat="46.356467" lon="14.391167">
        <ele>1264.92004394531</ele>
        <time>2003-09-28T07:34:32Z</time>
      </trkpt>
      <trkpt lat="46.356667" lon="14.391017">
        <ele>1146.96240234375</ele>
        <time>2003-09-28T07:34:32Z</time>
      </trkpt>
      <trkpt lat="46.356817" lon="14.3909">
        <ele>1142.08557128906</ele>
        <time>2003-09-28T07:34:32Z</time>
      </trkpt>
      <trkpt lat="46.357033" lon="14.390717">
        <ele>1145.13354492188</ele>
        <time>2003-09-28T07:34:32Z</time>
      </trkpt>
      <trkpt lat="46.357383" lon="14.390533">
        <ele>1150.01037597656</ele>
        <time>2003-09-28T07:34:32Z</time>
      </trkpt>
      <trkpt lat="46.357583" lon="14.390383">
        <ele>1163.11682128906</ele>
        <time>2003-09-28T07:34:32Z</time>
      </trkpt>
      <trkpt lat="46.357917" lon="14.390333">
        <ele>1171.9560546875</ele>
        <time>2003-09-28T07:34:32Z</time>
      </trkpt>
      <trkpt lat="46.358133" lon="14.39025">
        <ele>1139.03759765625</ele>
        <time>2003-09-28T07:34:32Z</time>
      </trkpt>
      <trkpt lat="46.3583" lon="14.39045">
        <ele>1153.97277832031</ele>
        <time>2003-09-28T07:34:32Z</time>
      </trkpt>
      <trkpt lat="46.35855" lon="14.390367">
        <ele>1160.06884765625</ele>
        <time>2003-09-28T07:34:32Z</time>
      </trkpt>
      <trkpt lat="46.359083" lon="14.390117">
        <ele>1143</ele>
        <time>2003-09-28T07:34:32Z</time>
      </trkpt>
    </trkseg>
  </trk>
</gpx>
